Regional Weather Roundup
Issued by NWS

Home | Current Version | Previous Version | Text Only | Print | Product List | Glossary On
Versions: 1 2 3 4 5 6 7 8 9 10 11 12 13 14 15 16 17 18 19 20 21 22 23 24 25 26 27 28 29 30 31 32 33 34 35 36 37 38 39 40 41 42 43 44 45 46 47 48 49 50
000
ASUS43 KMPX 202010
RWRMN
WEATHER ROUNDUP FOR MINNESOTA
NATIONAL WEATHER SERVICE TWIN CITIES/CHANHASSEN MN
200 PM CST SAT DEC 20 2014


NOTE: "FAIR" INDICATES FEW OR NO CLOUDS BELOW 12,000 FEET WITH NO
SIGNIFICANT WEATHER AND/OR OBSTRUCTIONS TO VISIBILITY. N/A MEANS
CURRENT SKY AND/OR WEATHER CONDITIONS ARE NOT AVAILABLE.

MNZ060>063-068>070-202100-
   Twin Cities Metro

CITY           SKY/WX    TMP DP  RH WIND       PRES   REMARKS
TWIN CITIES    CLOUDY    31  27  85 S10       30.12F WCI  22
ST PAUL        CLOUDY    32  28  85 S8        30.13F WCI  25
CRYSTAL        CLOUDY    32  27  81 S9        30.10F WCI  24
BLAINE         CLOUDY    34  30  86 S9        30.10F WCI  26
LAKEVILLE      CLOUDY    28  27  93 S6        30.11F WCI  22
EDEN PRAIRIE   CLOUDY    31  25  78 S13       30.10F WCI  21
SOUTH ST PAUL  CLOUDY    33  28  85 S8        30.12F WCI  25
LAKE ELMO      CLOUDY    32  30  93 S9        30.13S WCI  24
$$
MNZ001>005-007-008-013>017-022>024-027-028-202100-
   Northwest Minnesota

CITY           SKY/WX    TMP DP  RH WIND       PRES   REMARKS
BEMIDJI          N/A     28  28  96 S10       29.98F FOG     WCI  19
HALLOCK        CLOUDY    28  27  93 CALM      29.95F FOG
ROSEAU         CLOUDY    30  25  80 S9        29.96S HAZE    WCI  22
WARROAD        CLOUDY    28  27  93 S8        29.97S WCI  20
THIEF RVR FALL CLOUDY    30  28  93 S14       29.97S WCI  20
CROOKSTON      CLOUDY    28  28 100 S14       29.98F FOG     WCI  17
FOSSTON        CLOUDY    27  27 100 S13       29.98F FOG     WCI  16
DETROIT LAKES  CLOUDY    30  30 100 S10       29.99F FOG     WCI  21
MOORHEAD       CLOUDY    30  30 100 S14       29.99F FOG     WCI  20
PARK RAPIDS    CLOUDY    30  28  92 S12       29.99S FOG     WCI  20
MAHNOMEN       CLOUDY    29  28  96 S9        29.98F FOG     WCI  20
$$
MNZ006-009>011-018-025>026-202100-
   North Central Minnesota

CITY           SKY/WX    TMP DP  RH WIND       PRES   REMARKS
BAUDETTE       CLOUDY    31  27  85 S9        29.97F WCI  23
FLAG ISLAND    CLOUDY    28  27  93 SW13      29.96S WCI  18
INTL FALLS     CLOUDY    30  28  92 SE3       30.00F FOG
WASKISH        CLOUDY    30  28  93 CALM      29.99F FOG
BIG FORK       MIX PCPN  30  28  93 S7        30.01S WCI  23
LONGVILLE      CLOUDY    28  28 100 S6        30.01F FOG     WCI  22
GRAND RAPIDS   CLOUDY    28  28 100 S12       30.02S WCI  18
CRANE LAKE     CLOUDY    28  27  93 CALM      30.05F
ORR            CLOUDY    28  27  93 S7        30.00F FOG     WCI  21
COOK           CLOUDY    28  27  93 S7        30.03F FOG     WCI  21
WALKER         CLOUDY    29  28  95 SW6       29.99F FOG     WCI  23
$$
MNZ012-019>021-037-202100-
   Northeast Minnesota

CITY           SKY/WX    TMP DP  RH WIND       PRES   REMARKS
DULUTH         CLOUDY    30  25  81 S10       30.06F HAZE    WCI  21
ELY            CLOUDY    28  27  93 S8        30.04F WCI  20
HIBBING        CLOUDY    30  26  85 S7        30.03F FOG     WCI  23
EVELETH        CLOUDY    30  28  93 S8        30.05S FOG     WCI  23
DULUTH HARBOR  CLOUDY    34  28  80 CALM      30.11F
TWO HARBORS    CLOUDY    34  28  80 S6        30.07F WCI  29
SILVER BAY     CLOUDY    30  28  93 S6        30.08S FOG     WCI  24
GRAND MARAIS     N/A     33  28  81 S9        30.13S WCI  25
G MARAIS ARPRT CLOUDY    27  23  86 S6        30.07S FOG     WCI  20
$$
MNZ029>031-032-039>041-046>048-054>057-064-202100-
   West Central Minnesota

CITY           SKY/WX    TMP DP  RH WIND       PRES   REMARKS
FERGUS FALLS   CLOUDY    30  28  93 S14       30.03S FOG     WCI  20
WHEATON        CLOUDY    28  27  93 S8        30.01F FOG     WCI  20
MORRIS         SUNNY     34  30  86 S10       30.01S FOG     WCI  26
ALEXANDRIA     CLOUDY    30  27  88 S12       30.02F FOG     WCI  20
ELBOW LAKE     CLOUDY    30  28  93 S14       30.00F FOG     WCI  20
WADENA         CLOUDY    28  27  93 S10       30.00S FOG     WCI  19
GLENWOOD       CLOUDY    30  28  93 S13       30.03S FOG     WCI  20
APPLETON       CLOUDY    34  30  86 S7        30.02F FOG     WCI  28
BENSON         CLOUDY    34  28  80 SW12      30.03S FOG     WCI  25
ORTONVILLE     CLOUDY    32  28  86 S8        30.00F FOG     WCI  25
MADISON        SUNNY     36  34  93 S7        30.02F FOG
WILLMAR        CLOUDY    34  28  80 S3        30.06F FOG
$$
MNZ033>034-036-042>043-049>051-058-059-202100-
   Central Minnesota

CITY           SKY/WX    TMP DP  RH WIND       PRES   REMARKS
ST CLOUD       CLOUDY    32  26  78 S13       30.07F WCI  22
SAUK CENTRE    CLOUDY    30  28  92 S15       30.04S FOG     WCI  19
PAYNESVILLE    CLOUDY    28  27  94 SE12      30.06  FOG     WCI  18
AITKIN         CLOUDY    32  28  86 S10       30.04S FOG     WCI  24
PINE RIVER     CLOUDY    28  28 100 S9        30.05F FOG     WCI  20
BRAINERD       CLOUDY    30  27  88 S7        30.05S WCI  23
STAPLES        CLOUDY    28  27  93 S8        30.02F FOG     WCI  20
LONG PRAIRIE   CLOUDY    30  28  93 SE15      30.03F FOG     WCI  19
LITTLE FALLS   CLOUDY    30  27  86 S9        30.06S WCI  22
LITCHFIELD     CLOUDY    32  30  93 SE3       30.07S
BUFFALO        CLOUDY    31  26  83 SE6       30.10F WCI  25
MAPLE LAKE     CLOUDY    32  28  87 S8        30.09F WCI  25
$$
MNZ037-044-045-052-053-202100-
   East Central Minnesota

CITY           SKY/WX    TMP DP  RH WIND       PRES   REMARKS
PRINCETON      CLOUDY    32  27  80 S10       30.09F WCI  24
MORA           CLOUDY    32  28  86 S13       30.10F WCI  22
CAMBRIDGE      CLOUDY    34  25  69 S9        30.08F WCI  26
RUSH CITY      CLOUDY    31  28  86 S5        30.11S WCI  27
MOOSE LAKE     CLOUDY    32  28  86 S9        30.06S HAZE    WCI  24
HINCKLEY       CLOUDY    32  30  93 S12       30.09F FOG     WCI  23
CLOQUET        CLOUDY    30  27  86 S7        30.06F FOG     WCI  23
MCGREGOR       CLOUDY    32  30  93 S8        30.06S WCI  25
$$
MNZ071>073-080-081-089-090-097-098-202100-
   Southwest Minnesota

CITY           SKY/WX    TMP DP  RH WIND       PRES   REMARKS
MONTEVIDEO     CLOUDY    32  30  93 SW8       30.04F FOG     WCI  25
GRANITE FALLS  CLOUDY    32  29  89 S13       30.06F WCI  23
CANBY          CLOUDY    33  30  90 S9        30.02F FOG     WCI  25
MARSHALL       CLOUDY    32  27  80 S15       30.04S WCI  22
REDWOOD FALLS  CLOUDY    32  29  88 S9        30.07S WCI  24
OLIVIA         CLOUDY    32  30  93 S9        30.06R WCI  24
PIPESTONE      CLOUDY    30  28  93 SW5       30.00F FOG     WCI  25
WINDOM         CLOUDY    30  28  93 S6        30.05F WCI  24
WORTHINGTON    CLOUDY    30  27  86 S14       30.04F WCI  20
JACKSON        CLOUDY    32  28  86 S9        30.06F WCI  24
TRACY          CLOUDY    32  30  93 S9        30.04S FOG     WCI  24
SLAYTON        CLOUDY    30  30  99 S7        30.03F FOG     WCI  23
$$
MNZ065>067-074>077-082>085-091>093-202100-
   South Central Minnesota

CITY           SKY/WX    TMP DP  RH WIND       PRES   REMARKS
MANKATO        CLOUDY    30  23  74 S8        30.10F WCI  23
NEW ULM        CLOUDY    30  28  93 S8        30.08F WCI  23
ST JAMES       CLOUDY    32  28  86 S8        30.09S WCI  25
FAIRMONT       CLOUDY    30  27  86 S13       30.07F WCI  20
GLENCOE        CLOUDY    32  29  90 S6        30.09S WCI  26
FARIBAULT      CLOUDY    30  28  93 S7        30.11F WCI  23
OWATONNA       CLOUDY    30  27  86 S9        30.11F WCI  22
WASECA         CLOUDY    32  30  93 S12       30.11F WCI  23
ALBERT LEA     CLOUDY    30  30 100 S7        30.10F FOG     WCI  23
$$
MNZ078>079-086>088-094>096-202100-
   Southeast Minnesota

CITY           SKY/WX    TMP DP  RH WIND       PRES   REMARKS
ROCHESTER      CLOUDY    30  28  92 S8        30.12F FOG     WCI  22
RED WING       CLOUDY    34  28  80 SE3       30.14S HAZE
STANTON        CLOUDY    33  28  82 S6        30.11F WCI  27
DODGE CENTER   CLOUDY    30  30 100 S9        30.11F FOG     WCI  22
WINONA         CLOUDY    34  30  86 SE6       30.17F HAZE    WCI  29
AUSTIN         CLOUDY    30  28  93 S6        30.11F FOG     WCI  24
PRESTON        CLOUDY    29  28  96 S7        30.14S FOG     WCI  22
$$
ABBREVIATIONS USED IN REMARKS
   TC - TEMPERATURES IN CELSIUS
  WCI - WIND CHILL INDEX
   HX - HEAT INDEX
  VSB - VISIBILITY
$$


USA.gov is the U.S. government's official web portal to all federal, state and local government web resources and services.